Location: Newark
(34.0111°N, 88.4892°W)
Time: 09:11:39
(UTC+00:00)

DIWATA 2B (PO-101) - Visible Passes

Search period start: 06 June 2020 00:00
Search period end: 16 June 2020 00:00
Orbit: 586 x 599 km, 97.9° (Epoch: 05 June)

Date Brightness Start Highest point End Pass type
(mag) Time Alt. Az. Time Alt. Az. Time Alt. Az.
06 Jun ? 06:42:27 28° NNE 06:42:27 28° NNE 06:44:35 10° N visible
07 Jun ? 06:51:25 29° N 06:51:25 29° N 06:53:32 10° N visible
08 Jun ? 07:00:21 28° NNW 07:00:21 28° NNW 07:02:26 10° NNW visible
09 Jun ? 07:09:19 27° NNW 07:09:19 27° NNW 07:11:17 10° NNW visible
10 Jun ? 05:41:41 10° NE 05:41:41 10° NE 05:41:42 10° NE visible
10 Jun ? 07:18:17 24° NNW 07:18:17 24° NNW 07:20:05 10° NNW visible
11 Jun ? 05:50:38 13° NE 05:50:38 13° NE 05:51:44 10° NE visible
11 Jun ? 07:27:14 21° NW 07:27:14 21° NW 07:28:51 10° NNW visible
12 Jun ? 05:59:36 15° NE 05:59:36 15° NE 06:01:11 10° NNE visible
12 Jun ? 07:36:12 18° NW 07:36:12 18° NW 07:37:33 10° NNW visible
13 Jun ? 06:08:34 18° NE 06:08:34 18° NE 06:10:27 10° NNE visible
13 Jun ? 07:45:10 15° NW 07:45:10 15° NW 07:46:11 10° NW visible
14 Jun ? 06:17:32 22° NE 06:17:32 22° NE 06:19:37 10° NNE visible
14 Jun ? 07:54:08 13° NW 07:54:08 13° NW 07:54:44 10° NW visible
15 Jun ? 06:26:30 25° NNE 06:26:30 25° NNE 06:28:43 10° N visible
15 Jun ? 08:03:06 10° WNW 08:03:06 10° WNW 08:03:07 10° NW visible
